Flag for U.S.A. Weather past 2 weeks in Sitka, Alaska, U.S.A.

Now
53 °F

Overcast.


Feels Like: 52 °F
Forecast: 54 / 59 °F
Wind: 5 mph from East

Location: Sitka Airport

Current Time: Jul 29, 2014 at 12:48:16 AM

Latest Report: Jul 28, 2014 at 11:53 PM


Visibility: 10 mi

Pressure: 29.98 "Hg

Humidity: 93%

Dew point: 51 °F

Location of SitkaLocation

Historic Weather in Sitka — Graph

°F

Sitka temperature yesterday

Maximum temperature yesterday: 59 °F (at 12:53 PM)
Minimum temperature yesterday: 53 °F (at 11:53 PM)
Average temperature yesterday: 56 °F

Past Weeks' High & Low Weather Summary

 TemperatureHumidityPressure
High68 °F (Jul 21, 3:53 PM)100% (Jul 14, 6:56 AM)30.27 "Hg (Jul 14, 6:56 AM)
Low52 °F (Jul 16, 3:53 AM)53% (Jul 21, 4:53 PM)29.65 "Hg (Jul 18, 9:00 PM)
Average57 °F86%29.98 "Hg
* Reported Jul 13 11:53 PM — Jul 28 11:53 PM, Sitka, Weather by CustomWeather, © 2014

Note: Actual official high and low records may vary slightly from our data, if they occured in-between our weather recording intervals... More about our weather records

Advertising

Sitka weather history for previous 24 hours

 ConditionsComfort  
Time TempWeatherWind HumidityBarometerVisibility
11:53 PM
Jul 28
53 °FOvercast.5 mph93%29.98 "Hg10 mi
10:53 PM54 °FLight rain. Mostly cloudy.6 mph90%29.98 "Hg10 mi
9:53 PM54 °FLight rain. Overcast.No wind90%29.99 "Hg9 mi
8:53 PM55 °FLight rain. Fog.6 mph96%29.98 "Hg2 mi
7:53 PM56 °FLight rain. More clouds than sun.No wind93%29.97 "Hg10 mi
6:53 PM55 °FLight rain. Mostly cloudy.5 mph93%29.97 "Hg10 mi
5:53 PM55 °FRain. Fog.7 mph96%29.97 "Hg2 mi
4:53 PM57 °FLight rain. Fog.5 mph93%29.96 "Hg6 mi
3:53 PM58 °FLight rain. Fog.9 mph93%29.97 "Hg6 mi
2:53 PM58 °FLight rain. Cloudy.6 mph93%29.97 "Hg8 mi
1:53 PM59 °FLight rain. Mostly cloudy.5 mph93%29.98 "Hg10 mi
12:53 PM59 °FLight rain. Mostly cloudy.7 mph90%29.99 "Hg9 mi
11:53 AM58 °FLight rain. Mostly cloudy.6 mph90%30.00 "Hg9 mi
10:53 AM58 °FLight rain. Mostly cloudy.No wind90%30.02 "Hg10 mi
9:53 AM58 °FLight rain. Overcast.No wind90%30.01 "Hg8 mi
8:53 AM58 °FLight rain. Mostly cloudy.3 mph93%30.01 "Hg10 mi
7:53 AM57 °FOvercast.No wind93%30.02 "Hg10 mi
6:53 AM56 °FOvercast.3 mph97%30.04 "Hg10 mi
5:53 AM56 °FCloudy.No wind97%30.04 "Hg10 mi
5:00 AM57 °FOvercast.5 mph93%30.05 "Hg10 mi
4:00 AM56 °FLight rain. Mostly cloudy.No wind97%30.05 "Hg10 mi
2:53 AM56 °FLight rain. Mostly cloudy.9 mph97%30.05 "Hg6 mi
1:53 AM56 °FLight rain. Mostly cloudy.No wind97%30.04 "Hg6 mi
12:53 AM56 °FMostly cloudy.3 mph93%30.05 "Hg10 mi
12:00 AM56 °FOvercast.No wind97%30.06 "Hg10 mi
Weather by CustomWeather, © 2014

See weather overviewHow to use our weather pages